Location: Unspecified
(0.0000°N, 0.0000°E)
Time: 21:07:36
(UTC+02:00)

Iridium 12 - Visible Passes

Search period start: 19 April 2015 00:00
Search period end: 29 April 2015 00:00
Orbit: 776 x 779 km, 86.4° (Epoch: 19 April)

Date Brightness Start Highest point End Pass type
(mag) Time Alt. Az. Time Alt. Az. Time Alt. Az.
19 Apr 7.1 20:23:16 10° ENE 20:25:47 14° E 20:28:40 10° ESE visible
19 Apr 7.2 22:01:50 10° NNW 22:06:25 31° W 22:10:57 10° SSW visible
20 Apr 5.7 21:27:45 10° N 21:32:55 71° W 21:38:07 10° S visible
21 Apr 5.6 20:54:25 10° NNE 20:59:26 51° E 21:04:31 10° SSE visible
22 Apr 6.6 20:21:57 10° NE 20:25:55 23° E 20:30:04 10° SE visible
22 Apr 8.0 22:02:45 10° NW 22:06:32 19° W 22:10:06 10° SW visible
23 Apr 6.7 21:28:03 10° NNW 21:32:59 43° W 21:37:53 10° SSW visible
24 Apr 5.5 20:54:18 10° N 20:59:29 84° E 21:04:44 10° S visible
25 Apr 6.0 20:21:16 10° NNE 20:26:00 37° E 20:30:50 10° SSE visible
25 Apr 8.6 22:04:41 10° WNW 22:06:41 12° W 22:08:14 10° WSW visible
26 Apr 7.6 21:28:41 10° NNW 21:33:04 27° W 21:37:20 10° SW visible
27 Apr 6.1 20:54:25 10° N 20:59:32 60° W 21:04:41 10° S visible
28 Apr 5.6 20:20:56 10° N 20:26:04 61° E 20:31:13 10° S visible
